Location: Newark
(48.1500°N, 2.9667°W)
Time: 17:11:07
(UTC+00:00)

Altair - Pass Details

Date: 02 February 2020
Orbit: 1502 x 1682 km, 47.2° (Epoch: 22 February)

Event Time Altitude Azimuth Distance (km) Brightness Sun altitude
Rises 14:46:25 0° 287° (WNW) 4,939 10.4 17.8°
Reaches altitude 10° 14:51:30 10° 267° (W) 3,937 10.3 17.3°
Maximum altitude 14:56:25 15° 237° (WSW) 3,533 11.2 16.8°
Drops below altitude 10° 15:01:18 10° 207° (SSW) 3,886 11.7 16.3°
Sets 15:06:19 0° 185° (S) 4,835 11.1 15.8°
